KP4DJT Weather Reports


time (UTC)temp
C
wind
direction
speed
KPH
gust
KPH
rain 1hr
cm
rain 24hr
cm
rain mn
cm
humidity
%
barometer
mb
20260906203817 37 127 9.7 14.5 0.00 0.00 0.00 34 1012.3
20260906202818 37 208 11.3 14.5 0.00 0.00 0.00 34 1012.4
20260906201818 37 199 9.7 12.9 0.00 0.00 0.00 33 1012.5
20260906200841 37 155 11.3 16.1 0.00 0.00 0.00 35 1012.6
20260906195818 37 190 8.0 14.5 0.00 0.00 0.00 33 1012.8
20260906194838 36 334 3.2 4.8 0.00 0.00 0.00 34 1012.9
20260906193818 36 181 4.8 6.4 0.00 0.00 0.00 35 1013.1
20260906192818 37 220 6.4 12.9 0.00 0.00 0.00 34 1013.2
20260906191819 36 171 11.3 16.1 0.00 0.00 0.00 36 1013.3
20260906190819 36 115 9.7 12.9 0.00 0.00 0.00 35 1013.4
20260906185839 37 243 8.0 14.5 0.00 0.00 0.00 37 1013.5
20260906184819 36 208 4.8 8.0 0.00 0.00 0.00 36 1013.6
20260906183819 36 156 8.0 11.3 0.00 0.00 0.00 37 1013.8
20260906182819 -17 172 6.4 9.7 0.00 0.00 0.00
20260906181816 35 130 6.4 11.3 0.00 0.00 0.00 39 1014.1
20260906180840 35 192 8.0 11.3 0.00 0.00 0.00 40 1014.2
20260906175840 35 176 9.7 14.5 0.00 0.00 0.00 39 1014.4
20260906174840 35 89 6.4 9.7 0.00 0.00 0.00 41 1014.5
20260906173820 35 119 1.6 4.8 0.00 0.00 0.00 40 1014.7
20260906172817 35 242 1.6 3.2 0.00 0.00 0.00 41 1014.9
20260906171817 34 162 1.6 3.2 0.00 0.00 0.00 43 1015.0
20260906170820 34 61 1.6 4.8 0.00 0.00 0.00 43 1015.2
20260906165821 34 192 4.8 6.4 0.00 0.00 0.00 44 1015.4
20260906164817 34 23 3.2 4.8 0.00 0.00 0.00 44 1015.4
20260906163818 34 148 3.2 4.8 0.00 0.00 0.00 43 1015.6
20260906162817 34 28 1.6 3.2 0.00 0.00 0.00 43 1015.5
20260906161818 33 120 3.2 4.8 0.00 0.00 0.00 45 1015.5
20260906160821 33 211 3.2 6.4 0.00 0.00 0.00 46 1015.5
20260906155818 33 162 1.6 4.8 0.00 0.00 0.00 46 1015.4
20260906154839 33 290 3.2 6.4 0.00 0.00 0.00 46 1015.4
20260906153818 32 169 3.2 4.8 0.00 0.00 0.00 47 1015.3
20260906152818 32 230 4.8 8.0 0.00 0.00 0.00 48 1015.3
20260906151819 32 214 6.4 9.7 0.00 0.00 0.00 49 1015.3
20260906150819 32 242 6.4 8.0 0.00 0.00 0.00 50 1015.3
20260906145819 31 215 6.4 9.7 0.00 0.00 0.00 51 1015.3
20260906144818 31 238 4.8 9.7 0.00 0.00 0.00 52 1015.3
20260906143819 31 235 4.8 6.4 0.00 0.00 0.00 52 1015.3
20260906142819 30 260 3.2 4.8 0.00 0.00 0.00 53 1015.3
20260906141819 30 222 8.0 9.7 0.00 0.00 0.00 53 1015.3
20260906140820 30 244 4.8 6.4 0.00 0.00 0.00 54 1015.2
20260906135820 29 231 6.4 9.7 0.00 0.00 0.00 56 1015.1
20260906134840 28 234 4.8 8.0 0.00 0.00 0.00 57 1015.0
20260906133817 28 228 3.2 4.8 0.00 0.00 0.00 58 1015.0
20260906132817 27 230 3.2 3.2 0.00 0.00 0.00 60 1015.0
20260906131817 27 181 3.2 3.2 0.00 0.00 0.00 60 1014.9
20260906130817 27 172 0.0 1.6 0.00 0.00 0.00 60 1014.8
20260906125832 27 218 3.2 4.8 0.00 0.00 0.00 61 1014.8
20260906124832 27 185 1.6 3.2 0.00 0.00 0.00 60 1014.7
20260906123832 27 199 0.0 0.0 0.00 0.00 0.00 61 1014.6
20260906122818 27 195 1.6 1.6 0.00 0.00 0.00 62 1014.5
20260906121818 27 170 1.6 1.6 0.00 0.00 0.00 62 1014.4
20260906120818 27 173 0.0 0.0 0.00 0.00 0.00 62 1014.4
20260906115818 27 171 1.6 1.6 0.00 0.00 0.00 61 1014.3
20260906114818 27 146 1.6 3.2 0.00 0.00 0.00 61 1014.2
20260906113839 27 158 3.2 4.8 0.00 0.00 0.00 60 1014.1
20260906112839 27 166 1.6 3.2 0.00 0.00 0.00 60 1014.0
20260906111819 27 158 3.2 4.8 0.00 0.00 0.00 61 1013.9
20260906110819 27 176 3.2 3.2 0.00 0.00 0.00 60 1013.8
20260906105819 27 0.0 0.0 0.00 0.00 0.00 61 1013.9
20260906104819 27 153 3.2 4.8 0.00 0.00 0.00 61 1013.8
20260906103819 27 118 1.6 3.2 0.00 0.00 0.00 60 1013.6
20260906102819 27 165 1.6 1.6 0.00 0.00 0.00 60 1013.6
20260906101820 27 156 0.0 1.6 0.00 0.00 0.00 59 1013.6
20260906100819 27 0.0 0.0 0.00 0.00 0.00 59 1013.6
20260906095820 27 124 3.2 4.8 0.00 0.00 0.00 58 1013.5
20260906094820 28 173 1.6 3.2 0.00 0.00 0.00 57 1013.6
20260906093820 28 161 1.6 1.6 0.00 0.00 0.00 56 1013.5
20260906092840 28 173 3.2 3.2 0.00 0.00 0.00 55 1013.4
20260906091841 28 153 4.8 4.8 0.00 0.00 0.00 54 1013.5
20260906090821 28 142 3.2 3.2 0.00 0.00 0.00 54 1013.5
20260906085821 28 133 0.0 0.0 0.00 0.00 0.00 54 1013.5
20260906084821 28 156 1.6 3.2 0.00 0.00 0.00 54 1013.5
20260906083820 29 151 1.6 1.6 0.00 0.00 0.00 53 1013.4
20260906082821 29 195 1.6 1.6 0.00 0.00 0.00 53 1013.3
20260906081821 29 223 1.6 3.2 0.00 0.00 0.00 52 1013.3
20260906080821 29 199 1.6 3.2 0.00 0.00 0.00 52 1013.3
20260906075821 29 173 1.6 3.2 0.00 0.00 0.00 51 1013.3
20260906074821 30 163 1.6 3.2 0.00 0.00 0.00 51 1013.3
20260906073822 30 175 1.6 1.6 0.00 0.00 0.00 51 1013.3
20260906072821 30 0.0 0.0 0.00 0.00 0.00 51 1013.3
20260906071821 30 154 1.6 1.6 0.00 0.00 0.00 50 1013.3
20260906070822 30 160 1.6 3.2 0.00 0.00 0.00 50 1013.4
20260906065822 30 225 1.6 1.6 0.00 0.00 0.00 50 1013.4
20260906064823 30 185 0.0 1.6 0.00 0.00 0.00 49 1013.3
20260906063823 30 223 1.6 3.2 0.00 0.00 0.00 49 1013.3
20260906062823 30 173 3.2 3.2 0.00 0.00 0.00 49 1013.4
20260906061823 30 127 1.6 3.2 0.00 0.00 0.00 50 1013.3
20260906060823 31 143 3.2 4.8 0.00 0.00 0.00 47 1013.4
20260906055823 31 172 4.8 4.8 0.00 0.00 0.00 47 1013.4
20260906054823 31 178 3.2 3.2 0.00 0.00 0.00 46 1013.3
20260906053823 31 233 1.6 3.2 0.00 0.00 0.00 46 1013.3
20260906052824 31 221 1.6 3.2 0.00 0.00 0.00 46 1013.2
20260906051824 31 221 1.6 3.2 0.00 0.00 0.00 46 1013.1
20260906050824 31 214 1.6 1.6 0.00 0.00 0.00 46 1013.1
20260906045824 31 204 3.2 3.2 0.00 0.00 0.00 46 1013.0
20260906044824 31 192 3.2 3.2 0.00 0.00 0.00 46 1013.0
20260906043826 31 188 3.2 3.2 0.00 0.00 0.00 46 1013.0
20260906042824 31 210 3.2 3.2 0.00 0.00 0.00 46 1013.1
20260906041824 32 203 0.0 1.6 0.00 0.00 0.00 45 1013.1
20260906040824 32 180 1.6 3.2 0.00 0.00 0.00 45 1013.1
20260906035824 32 187 1.6 3.2 0.00 0.00 0.00 44 1013.1
20260906034845 32 176 3.2 4.8 0.00 0.00 0.00 44 1013.2
20260906033825 32 171 3.2 4.8 0.00 0.00 0.00 44 1013.1
20260906032825 32 177 3.2 4.8 0.00 0.00 0.00 44 1013.0
20260906031825 32 164 3.2 3.2 0.00 0.00 0.00 43 1013.0
20260906030826 33 170 3.2 4.8 0.00 0.00 0.00 43 1013.0
20260906025826 33 175 3.2 4.8 0.00 0.00 0.00 43 1013.0
20260906024826 33 164 6.4 8.0 0.00 0.00 0.00 43 1012.8
20260906023826 33 167 4.8 6.4 0.00 0.00 0.00 42 1012.8
20260906022826 33 154 4.8 6.4 0.00 0.00 0.00 41 1012.7
20260906021826 34 141 4.8 6.4 0.00 0.00 0.00 41 1012.5
20260906020826 34 150 4.8 6.4 0.00 0.00 0.00 40 1012.4
20260906015826 34 145 3.2 3.2 0.00 0.00 0.00 40 1012.4
20260906014827 35 155 6.4 6.4 0.00 0.00 0.00 39 1012.3
20260906013827 35 153 3.2 4.8 0.00 0.00 0.00 39 1012.2
20260906012820 35 139 6.4 8.0 0.00 0.00 0.00 39 1012.1
20260906011819 35 141 4.8 9.7 0.00 0.00 0.00 39 1012.0
20260906010818 35 135 6.4 9.7 0.00 0.00 0.00 38 1012.0
20260906005818 35 148 6.4 9.7 0.00 0.00 0.00 37 1011.9
20260906004859 36 158 6.4 8.0 0.00 0.00 0.00 37 1011.8
20260906003839 36 149 6.4 9.7 0.00 0.00 0.00 36 1011.7
20260906002819 36 123 9.7 12.9 0.00 0.00 0.00 36 1011.7
20260906001839 36 150 11.3 12.9 0.00 0.00 0.00 35 1011.6
20260906000819 36 132 12.9 14.5 0.00 0.00 0.00 35 1011.6
20260905235820 36 156 9.7 11.3 0.00 0.00 0.00 35 1011.5
20260905234840 36 213 4.8 8.0 0.00 0.00 0.00 34 1011.5
20260905233819 37 166 14.5 19.3 0.00 0.00 0.00 35 1011.4
20260905232819 36 170 8.0 12.9 0.00 0.00 0.00 34 1011.3
20260905231817 36 210 6.4 11.3 0.00 0.00 0.00 34 1011.2
20260905230857 36 175 8.0 14.5 0.00 0.00 0.00 35 1011.2
20260905225820 36 184 12.9 17.7 0.00 0.00 0.00 34 1011.2
20260905224820 37 219 11.3 12.9 0.00 0.00 0.00 34 1011.2
20260905223820 37 206 12.9 17.7 0.00 0.00 0.00 34 1011.2
20260905222817 36 168 8.0 14.5 0.00 0.00 0.00 35 1011.2
20260905221817 36 157 9.7 14.5 0.00 0.00 0.00 35 1011.2
20260905220817 36 170 11.3 16.1 0.00 0.00 0.00 35 1011.3
20260905215821 36 161 9.7 12.9 0.00 0.00 0.00 34 1011.4
20260905214858 36 176 9.7 14.5 0.00 0.00 0.00 35 1011.5
20260905213818 36 172 11.3 16.1 0.00 0.00 0.00 35 1011.6
20260905212818 36 203 8.0 11.3 0.00 0.00 0.00 36 1011.7
20260905211818 36 184 6.4 11.3 0.00 0.00 0.00 36 1011.8
20260905210818 36 208 9.7 12.9 0.00 0.00 0.00 37 1012.0
20260905205839 36 160 12.9 17.7 0.00 0.00 0.00 36 1012.1
20260905204818 36 231 8.0 14.5 0.00 0.00 0.00 37 1012.2